Location: ?????
(42.2640°N, 43.4211°E)
Time: 14:41:29
(UTC+00:00)

Cosmos 1937 Rocket - Pass Details

Date: 07 August 2020
Orbit: 747 x 780 km, 74.0° (Epoch: 19 September)

Event Time Altitude Azimuth Distance (km) Brightness Sun altitude
Exits shadow 00:26:42 26° 218° (SW) 1,488 4.4 -16.3°
Maximum altitude 00:29:39 64° 292° (WNW) 865 3.6 -15.9°
Drops below altitude 10° 00:34:56 10° 14° (NNE) 2,341 6.8 -15.1°
Sets 00:37:21 0° 18° (NNE) 3,272 7.8 -14.8°
